This demonstration page uses our WeatherBlox Daily Observations layout. Learn more.

Left ArrowRight Arrow

Hourly Observations for August 7, 2015

Temp ( °F °C ) Dew Point ( °F °C ) Humidity (%) Winds ( mph kmh ) Pressure ( in mb ) Visibility ( mi km ) Precip ( " mm )
12:53 am 00:53 Mostly Clear 64 17.8 60 15.6 87 87 N 6 9 29.90 1013 10 16 N/A
1:53 am 01:53 Cloudy 64 17.8 59 15 84 84 NE 5 7 29.90 1012 10 16 N/A
2:24 am 02:24 Cloudy 64 17.8 59 15 84 84 NE 7 11 29.88 1012 10 16 N/A
2:53 am 02:53 Cloudy 64 17.8 59 15 84 84 N N/A 29.88 1012 10 16 N/A
3:26 am 03:26 Partly Cloudy 62 16.7 60 15.6 93 93 N N/A 29.88 1012 10 16 N/A
3:53 am 03:53 Clear 60 15.6 59 15 96 96 N N/A 29.88 1012 10 16 N/A
4:28 am 04:28 Mostly Cloudy 62 16.7 59 15 90 90 NNW 8 13 29.91 1013 10 16 N/A
4:53 am 04:53 Cloudy 63 17.2 59 15 87 87 N 9 15 29.88 1012 10 16 N/A
5:53 am 05:53 Cloudy 63 17.2 59 15 87 87 NE 7 11 29.88 1012 10 16 N/A
6:19 am 06:19 Partly Cloudy 62 16.7 59 15 90 90 N N/A 29.91 1013 10 16 N/A
6:40 am 06:40 Mostly Cloudy 62 16.7 59 15 90 90 NNW 3 6 29.91 1013 10 16 N/A
6:53 am 06:53 Cloudy 62 16.7 59 15 90 90 N 3 6 29.90 1013 10 16 N/A
7:53 am 07:53 Cloudy 64 17.8 59 15 84 84 NNE 3 6 29.91 1013 10 16 N/A
8:53 am 08:53 Cloudy 66 18.9 59 15 78 78 N 5 7 29.91 1013 10 16 N/A
9:53 am 09:53 Sunny 69 20.6 60 15.6 73 73 N N/A 29.91 1013 10 16 N/A
10:53 am 10:53 Sunny 74 23.3 62 16.7 67 67 NW 3 6 29.92 1013 10 16 N/A
11:53 am 11:53 Sunny 76 24.4 62 16.7 62 62 undefined N/A 29.91 1013 10 16 N/A
12:53 pm 12:53 Sunny 78 25.6 62 16.7 58 58 WNW 3 6 29.91 1013 10 16 N/A
1:53 pm 13:53 Sunny 80 26.7 62 16.7 54 54 NNE 6 9 29.90 1013 10 16 N/A
2:53 pm 14:53 Sunny 81 27.2 62 16.7 53 53 VRB 5 7 29.90 1013 10 16 N/A
3:53 pm 15:53 Sunny 82 27.8 62 16.7 51 51 VRB 5 7 29.90 1012 10 16 N/A
4:53 pm 16:53 Sunny 81 27.2 63 17.2 54 54 WNW 9 15 29.89 1012 10 16 N/A
5:53 pm 17:53 Sunny 82 27.8 62 16.7 51 51 VRB 5 7 29.88 1012 10 16 N/A
6:53 pm 18:53 Sunny 81 27.2 62 16.7 53 53 NNW 5 7 29.87 1012 10 16 N/A
7:53 pm 19:53 Sunny 77 25 63 17.2 62 62 N 5 7 29.87 1012 10 16 N/A
8:53 pm 20:53 Clear 72 22.2 65 18.3 79 79 N 5 7 29.89 1012 10 16 N/A
9:53 pm 21:53 Clear 71 21.7 63 17.2 76 76 N 5 7 29.90 1013 10 16 N/A
10:53 pm 22:53 Clear 66 18.9 65 18.3 96 96 N N/A 29.90 1013 10 16 N/A
11:53 pm 23:53 Mostly Cloudy 66 18.9 63 17.2 90 90 N N/A 29.91 1013 10 16 N/A

Powered by AerisWeather